SAS4201 EFOU-ESSA

Flight info

Callsign SAS4201
Flight time 1h 6m
Altitude 32000
Route IXONO T255 DIVEG DCT SUBUG DCT BAKLA DCT HMR
Aircraft MD82/M-SDFGIRWY/S

Departure

Time 2026-04-20 14:18
Airport Oulu Airport (EFOU)

Arrival

Time 2026-04-20 15:24
Airport Stockholm-Arlanda Airport (ESSA)
Time Latitude Longitude Altitude Speed Heading
2026-04-20 13:49 64.92812 25.37243 47 ft 0 kts 60°
2026-04-20 14:12 64.92780 25.37113 51 ft 0 kts 60°
2026-04-20 14:13 64.92787 25.37142 49 ft 0 kts 60°
2026-04-20 14:13 64.92779 25.37106 51 ft 0 kts 60°
2026-04-20 14:13 64.92782 25.37120 50 ft 0 kts 60°
2026-04-20 14:14 64.92782 25.37121 50 ft 0 kts 61°
2026-04-20 14:14 64.92784 25.37138 49 ft 4 kts 82°
2026-04-20 14:14 64.92769 25.37191 51 ft 4 kts 139°
2026-04-20 14:15 64.92747 25.37245 51 ft 5 kts 129°
2026-04-20 14:15 64.92727 25.37318 51 ft 6 kts 121°
2026-04-20 14:15 64.92704 25.37404 51 ft 7 kts 121°
2026-04-20 14:15 64.92679 25.37502 51 ft 7 kts 121°
2026-04-20 14:16 64.92651 25.37613 51 ft 8 kts 121°
2026-04-20 14:16 64.92620 25.37738 51 ft 10 kts 121°
2026-04-20 14:16 64.92579 25.37886 51 ft 12 kts 130°
2026-04-20 14:16 64.92504 25.37896 51 ft 12 kts 216°
2026-04-20 14:17 64.92453 25.37692 46 ft 16 kts 270°
2026-04-20 14:17 64.92545 25.37274 48 ft 54 kts 301°
2026-04-20 14:17 64.92856 25.36053 51 ft 117 kts 301°
2026-04-20 14:17 64.93365 25.34073 99 ft 163 kts 300°
2026-04-20 14:18 64.93962 25.31753 771 ft 165 kts 301°
2026-04-20 14:18 64.94542 25.29489 1712 ft 158 kts 301°
2026-04-20 14:18 64.95097 25.27249 2473 ft 158 kts 301°
2026-04-20 14:18 64.95599 25.25005 3116 ft 163 kts 287°
2026-04-20 14:19 64.95482 25.22324 3641 ft 175 kts 238°
2026-04-20 14:19 64.94610 25.20250 4130 ft 186 kts 222°
2026-04-20 14:19 64.93557 25.18178 4372 ft 213 kts 221°
2026-04-20 14:19 64.92309 25.15873 4540 ft 244 kts 218°
2026-04-20 14:20 64.90840 25.13464 4913 ft 266 kts 215°
2026-04-20 14:20 64.89252 25.11066 5611 ft 272 kts 213°
2026-04-20 14:20 64.87629 25.08688 6387 ft 276 kts 213°
2026-04-20 14:20 64.86009 25.06354 7091 ft 280 kts 213°
2026-04-20 14:21 64.84329 25.03958 7781 ft 284 kts 212°
2026-04-20 14:21 64.82632 25.01552 8515 ft 286 kts 212°
2026-04-20 14:21 64.80928 24.99145 9203 ft 290 kts 213°
2026-04-20 14:21 64.79179 24.96675 9889 ft 293 kts 212°
2026-04-20 14:22 64.77412 24.94174 10500 ft 299 kts 212°
2026-04-20 14:22 64.75595 24.91601 10685 ft 319 kts 212°
2026-04-20 14:22 64.73635 24.88826 10874 ft 337 kts 212°
2026-04-20 14:22 64.71576 24.85909 11097 ft 353 kts 212°
2026-04-20 14:23 64.69442 24.82894 11570 ft 360 kts 212°
2026-04-20 14:23 64.67297 24.79870 12197 ft 362 kts 212°
2026-04-20 14:23 64.65128 24.76820 12796 ft 365 kts 212°
2026-04-20 14:23 64.62970 24.73791 13362 ft 368 kts 212°
2026-04-20 14:24 64.60764 24.70696 13925 ft 372 kts 212°
2026-04-20 14:24 64.58515 24.67477 14459 ft 376 kts 214°
2026-04-20 14:24 64.56376 24.64106 14979 ft 378 kts 216°
2026-04-20 14:24 64.54228 24.60557 15520 ft 380 kts 217°
2026-04-20 14:25 64.52081 24.56955 16029 ft 383 kts 217°
2026-04-20 14:25 64.49913 24.53303 16471 ft 387 kts 217°
2026-04-20 14:25 64.47719 24.49634 17004 ft 389 kts 217°
2026-04-20 14:25 64.45513 24.45978 17544 ft 391 kts 217°
2026-04-20 14:26 64.43279 24.42305 18042 ft 395 kts 217°
2026-04-20 14:26 64.41027 24.38625 18543 ft 397 kts 216°
2026-04-20 14:26 64.38754 24.34924 19009 ft 400 kts 217°
2026-04-20 14:26 64.36465 24.31207 19458 ft 402 kts 216°
2026-04-20 14:27 64.34166 24.27480 19895 ft 405 kts 217°
2026-04-20 14:27 64.31877 24.23770 20322 ft 408 kts 217°
2026-04-20 14:27 64.29539 24.19988 20766 ft 411 kts 217°
2026-04-20 14:27 64.27189 24.16189 21217 ft 413 kts 217°
2026-04-20 14:28 64.24817 24.12357 21627 ft 417 kts 216°
2026-04-20 14:28 64.22451 24.08554 22051 ft 420 kts 216°
2026-04-20 14:28 64.20037 24.04719 22489 ft 422 kts 216°
2026-04-20 14:28 64.17628 24.00905 22899 ft 426 kts 216°
2026-04-20 14:29 64.15169 23.97009 23364 ft 428 kts 216°
2026-04-20 14:29 64.12730 23.93136 23778 ft 431 kts 216°
2026-04-20 14:29 64.10247 23.89188 24146 ft 434 kts 216°
2026-04-20 14:29 64.07780 23.85262 24513 ft 436 kts 216°
2026-04-20 14:30 64.05279 23.81283 24903 ft 437 kts 216°
2026-04-20 14:30 64.02771 23.77298 25252 ft 440 kts 216°
2026-04-20 14:30 64.00241 23.73290 25594 ft 442 kts 216°
2026-04-20 14:30 63.97768 23.69224 25945 ft 445 kts 219°
2026-04-20 14:31 63.95383 23.64652 26268 ft 448 kts 222°
2026-04-20 14:31 63.93088 23.59948 26646 ft 449 kts 223°
2026-04-20 14:31 63.90776 23.55110 27016 ft 451 kts 223°
2026-04-20 14:31 63.88449 23.50241 27348 ft 454 kts 223°
2026-04-20 14:32 63.86137 23.45435 27697 ft 455 kts 223°
2026-04-20 14:32 63.83775 23.40575 28074 ft 457 kts 222°
2026-04-20 14:32 63.81429 23.35793 28394 ft 460 kts 222°
2026-04-20 14:32 63.79033 23.30948 28840 ft 459 kts 222°
2026-04-20 14:33 63.76670 23.26187 29365 ft 456 kts 222°
2026-04-20 14:33 63.74295 23.21413 29864 ft 454 kts 221°
2026-04-20 14:33 63.71952 23.16686 30184 ft 455 kts 221°
2026-04-20 14:33 63.69568 23.11890 30502 ft 456 kts 221°
2026-04-20 14:34 63.67214 23.07174 30875 ft 454 kts 221°
2026-04-20 14:34 63.64871 23.02528 31266 ft 452 kts 220°
2026-04-20 14:34 63.62503 22.97894 31640 ft 450 kts 220°
2026-04-20 14:34 63.60132 22.93264 32000 ft 448 kts 220°
2026-04-20 14:35 63.57808 22.88705 32213 ft 450 kts 220°
2026-04-20 14:35 63.55427 22.84013 32308 ft 454 kts 220°
2026-04-20 14:35 63.50626 22.74519 32371 ft 466 kts 220°
2026-04-20 14:36 63.45756 22.64879 32383 ft 473 kts 220°
2026-04-20 14:36 63.40803 22.55145 32385 ft 471 kts 220°
2026-04-20 14:37 63.35716 22.46121 32386 ft 468 kts 214°
2026-04-20 14:37 63.30453 22.37574 32385 ft 468 kts 214°
2026-04-20 14:38 63.25218 22.28908 32391 ft 469 kts 215°
2026-04-20 14:38 63.20034 22.20175 32393 ft 470 kts 215°
2026-04-20 14:39 63.14851 22.11433 32392 ft 470 kts 215°
2026-04-20 14:39 63.09626 22.02671 32396 ft 470 kts 215°
2026-04-20 14:40 63.04418 21.93986 32397 ft 470 kts 214°
2026-04-20 14:40 62.99192 21.85308 32398 ft 470 kts 214°
2026-04-20 14:41 62.93989 21.76703 32396 ft 471 kts 214°
2026-04-20 14:41 62.88731 21.68112 32395 ft 470 kts 213°
2026-04-20 14:42 62.83387 21.59771 32392 ft 470 kts 213°
2026-04-20 14:42 62.78078 21.51518 32389 ft 470 kts 213°
2026-04-20 14:43 62.72763 21.43195 32389 ft 468 kts 213°
2026-04-20 14:43 62.67504 21.34945 32394 ft 470 kts 213°
2026-04-20 14:44 62.62172 21.26700 32393 ft 471 kts 212°
2026-04-20 14:44 62.56823 21.18468 32392 ft 471 kts 213°
2026-04-20 14:45 62.51468 21.10226 32395 ft 472 kts 213°
2026-04-20 14:45 62.46117 21.02008 32409 ft 470 kts 212°
2026-04-20 14:46 62.40776 20.93823 32395 ft 472 kts 212°
2026-04-20 14:46 62.35449 20.85716 32394 ft 470 kts 212°
2026-04-20 14:47 62.30108 20.77693 32399 ft 466 kts 211°
2026-04-20 14:48 62.22094 20.65736 32399 ft 468 kts 212°
2026-04-20 14:48 62.16775 20.57762 32400 ft 469 kts 211°
2026-04-20 14:49 62.11403 20.49749 32400 ft 469 kts 211°
2026-04-20 14:49 62.06065 20.41830 32400 ft 469 kts 211°
2026-04-20 14:50 62.00678 20.33866 32404 ft 470 kts 211°
2026-04-20 14:50 61.95325 20.26053 32406 ft 470 kts 210°
2026-04-20 14:51 61.89930 20.18212 32406 ft 470 kts 210°
2026-04-20 14:51 61.84555 20.10399 32411 ft 470 kts 210°
2026-04-20 14:52 61.79187 20.02609 32408 ft 471 kts 210°
2026-04-20 14:52 61.73791 19.94803 32411 ft 471 kts 210°
2026-04-20 14:53 61.68378 19.87006 32429 ft 471 kts 210°
2026-04-20 14:53 61.62958 19.79266 32414 ft 471 kts 209°
2026-04-20 14:54 61.57514 19.71596 32411 ft 471 kts 210°
2026-04-20 14:54 61.52065 19.63871 32411 ft 472 kts 210°
2026-04-20 14:55 61.46662 19.56189 32412 ft 472 kts 210°
2026-04-20 14:55 61.41204 19.48447 32419 ft 472 kts 210°
2026-04-20 14:56 61.35758 19.40910 32415 ft 469 kts 204°
2026-04-20 14:56 61.29901 19.35207 32415 ft 465 kts 198°
2026-04-20 14:57 61.23963 19.29795 32413 ft 466 kts 199°
2026-04-20 14:57 61.18061 19.24137 32418 ft 466 kts 200°
2026-04-20 14:58 61.12213 19.18395 32431 ft 467 kts 200°
2026-04-20 14:58 61.06351 19.12664 32426 ft 467 kts 200°
2026-04-20 14:59 61.00479 19.06982 32037 ft 460 kts 200°
2026-04-20 14:59 60.97633 19.04237 31502 ft 453 kts 199°
2026-04-20 14:59 60.94784 19.01514 30905 ft 448 kts 199°
2026-04-20 14:59 60.91955 18.98834 30243 ft 444 kts 199°
2026-04-20 15:00 60.89159 18.96192 29550 ft 440 kts 199°
2026-04-20 15:00 60.86418 18.93615 28928 ft 435 kts 200°
2026-04-20 15:00 60.83660 18.91019 28282 ft 431 kts 200°
2026-04-20 15:00 60.80968 18.88471 27666 ft 427 kts 200°
2026-04-20 15:01 60.78272 18.85911 27080 ft 423 kts 200°
2026-04-20 15:01 60.75648 18.83420 26496 ft 419 kts 200°
2026-04-20 15:01 60.72999 18.80913 25916 ft 416 kts 200°
2026-04-20 15:01 60.70398 18.78460 25332 ft 413 kts 200°
2026-04-20 15:02 60.67785 18.76003 24741 ft 411 kts 201°
2026-04-20 15:02 60.65183 18.73563 24148 ft 409 kts 201°
2026-04-20 15:02 60.62628 18.71172 23491 ft 407 kts 201°
2026-04-20 15:02 60.60046 18.68762 22861 ft 404 kts 201°
2026-04-20 15:03 60.57496 18.66391 22258 ft 400 kts 201°
2026-04-20 15:03 60.54985 18.64053 21674 ft 396 kts 201°
2026-04-20 15:03 60.52485 18.61728 21099 ft 393 kts 201°
2026-04-20 15:03 60.50009 18.59429 20532 ft 389 kts 201°
2026-04-20 15:04 60.47586 18.57184 19967 ft 386 kts 202°
2026-04-20 15:04 60.45140 18.54924 19398 ft 383 kts 202°
2026-04-20 15:04 60.42748 18.52717 18856 ft 380 kts 202°
2026-04-20 15:04 60.40332 18.50492 18246 ft 376 kts 202°
2026-04-20 15:05 60.37986 18.48334 17675 ft 372 kts 202°
2026-04-20 15:05 60.35641 18.46178 17115 ft 368 kts 202°
2026-04-20 15:05 60.33321 18.44047 16566 ft 364 kts 202°
2026-04-20 15:05 60.31016 18.41938 16030 ft 361 kts 202°
2026-04-20 15:06 60.28731 18.39872 15504 ft 359 kts 199°
2026-04-20 15:06 60.26328 18.38762 15137 ft 350 kts 181°
2026-04-20 15:06 60.23922 18.38541 14971 ft 353 kts 178°
2026-04-20 15:06 60.21458 18.38446 14752 ft 354 kts 178°
2026-04-20 15:07 60.18981 18.38360 14506 ft 354 kts 178°
2026-04-20 15:07 60.16545 18.38267 14226 ft 353 kts 178°
2026-04-20 15:07 60.14084 18.38144 13917 ft 352 kts 179°
2026-04-20 15:07 60.11634 18.37983 13618 ft 350 kts 179°
2026-04-20 15:08 60.10026 18.37860 13442 ft 349 kts 179°
2026-04-20 15:08 60.06847 18.37592 13094 ft 347 kts 180°
2026-04-20 15:08 60.04436 18.37373 12829 ft 346 kts 180°
2026-04-20 15:08 60.02028 18.37152 12580 ft 345 kts 179°
2026-04-20 15:09 60.00413 18.37010 12415 ft 344 kts 179°
2026-04-20 15:09 59.98049 18.36803 12223 ft 343 kts 179°
2026-04-20 15:09 59.95657 18.36591 12013 ft 343 kts 179°
2026-04-20 15:09 59.92501 18.36315 11709 ft 341 kts 179°
2026-04-20 15:10 59.90897 18.36175 11560 ft 340 kts 179°
2026-04-20 15:10 59.88554 18.35974 11357 ft 340 kts 179°
2026-04-20 15:10 59.86212 18.35773 11114 ft 331 kts 179°
2026-04-20 15:10 59.83954 18.35576 10933 ft 316 kts 179°
2026-04-20 15:11 59.81809 18.35388 10472 ft 313 kts 179°
2026-04-20 15:11 59.79663 18.35206 10253 ft 301 kts 179°
2026-04-20 15:11 59.77593 18.35036 9759 ft 299 kts 179°
2026-04-20 15:11 59.75500 18.34871 9237 ft 300 kts 180°
2026-04-20 15:12 59.73430 18.34172 8712 ft 303 kts 194°
2026-04-20 15:12 59.71445 18.32875 8250 ft 302 kts 198°
2026-04-20 15:12 59.69480 18.31478 7865 ft 297 kts 198°
2026-04-20 15:12 59.67556 18.30107 7614 ft 292 kts 198°
2026-04-20 15:13 59.65654 18.28745 7357 ft 289 kts 198°
2026-04-20 15:13 59.63782 18.27400 7114 ft 289 kts 198°
2026-04-20 15:13 59.61895 18.26021 6865 ft 288 kts 199°
2026-04-20 15:13 59.60016 18.24652 6609 ft 287 kts 199°
2026-04-20 15:14 59.58140 18.23290 6337 ft 286 kts 199°
2026-04-20 15:14 59.56339 18.21710 6080 ft 286 kts 205°
2026-04-20 15:14 59.54574 18.19911 5813 ft 284 kts 207°
2026-04-20 15:14 59.52842 18.18108 5550 ft 282 kts 207°
2026-04-20 15:15 59.51108 18.16301 5301 ft 277 kts 207°
2026-04-20 15:15 59.49435 18.14551 5046 ft 272 kts 207°
2026-04-20 15:15 59.47769 18.12821 4779 ft 268 kts 207°
2026-04-20 15:15 59.46142 18.11139 4516 ft 264 kts 207°
2026-04-20 15:16 59.44568 18.09296 4257 ft 262 kts 214°
2026-04-20 15:16 59.43082 18.07282 4119 ft 256 kts 216°
2026-04-20 15:16 59.41645 18.05282 4046 ft 256 kts 216°
2026-04-20 15:16 59.40194 18.03243 4016 ft 253 kts 216°
2026-04-20 15:17 59.38938 18.00984 4006 ft 244 kts 234°
2026-04-20 15:17 59.37984 17.98408 4009 ft 221 kts 237°
2026-04-20 15:17 59.37186 17.95891 3985 ft 218 kts 255°
2026-04-20 15:17 59.37221 17.93057 4004 ft 207 kts 296°
2026-04-20 15:18 59.38126 17.91022 4021 ft 198 kts 332°
2026-04-20 15:18 59.39336 17.89705 4020 ft 199 kts 338°
2026-04-20 15:18 59.40587 17.88579 4003 ft 197 kts 341°
2026-04-20 15:18 59.41890 17.88123 3998 ft 192 kts
2026-04-20 15:19 59.43219 17.88465 3997 ft 192 kts
2026-04-20 15:19 59.44549 17.88791 3955 ft 191 kts
2026-04-20 15:19 59.45835 17.89102 3619 ft 183 kts 10°
2026-04-20 15:19 59.47066 17.89503 3325 ft 176 kts 11°
2026-04-20 15:20 59.48259 17.89909 3088 ft 171 kts 11°
2026-04-20 15:20 59.49413 17.90316 2859 ft 165 kts 12°
2026-04-20 15:20 59.50520 17.90709 2603 ft 157 kts 12°
2026-04-20 15:20 59.51528 17.91069 2469 ft 146 kts 12°
2026-04-20 15:21 59.52534 17.91434 2292 ft 146 kts 12°
2026-04-20 15:21 59.53475 17.91771 2121 ft 131 kts 12°
2026-04-20 15:21 59.54356 17.92096 1925 ft 129 kts 13°
2026-04-20 15:21 59.55223 17.92425 1740 ft 124 kts 12°
2026-04-20 15:22 59.56084 17.92739 1528 ft 124 kts 12°
2026-04-20 15:22 59.56929 17.93040 1370 ft 124 kts 12°
2026-04-20 15:22 59.57792 17.93352 1207 ft 128 kts 12°
2026-04-20 15:22 59.58655 17.93658 1041 ft 126 kts 12°
2026-04-20 15:23 59.59524 17.93998 808 ft 129 kts 11°
2026-04-20 15:23 59.60426 17.94335 694 ft 136 kts 10°
2026-04-20 15:23 59.61377 17.94616 493 ft 137 kts
2026-04-20 15:23 59.62305 17.94965 260 ft 132 kts 11°
2026-04-20 15:24 59.63172 17.95272 127 ft 119 kts 10°
2026-04-20 15:24 59.63834 17.95511 115 ft 73 kts 10°
2026-04-20 15:24 59.64218 17.95651 112 ft 52 kts 10°
2026-04-20 15:24 59.64567 17.95649 109 ft 49 kts 341°
2026-04-20 15:25 59.64883 17.95490 108 ft 46 kts
2026-04-20 15:25 59.65188 17.95440 122 ft 43 kts 345°
2026-04-20 15:25 59.65467 17.95293 127 ft 41 kts 344°
2026-04-20 15:25 59.65674 17.95183 128 ft 21 kts 345°
2026-04-20 15:26 59.65745 17.94968 126 ft 22 kts 255°
2026-04-20 15:26 59.65705 17.94668 123 ft 23 kts 256°
2026-04-20 15:26 59.65667 17.94367 126 ft 22 kts 256°
2026-04-20 15:26 59.65628 17.94055 120 ft 25 kts 256°
2026-04-20 15:27 59.65582 17.93698 114 ft 28 kts 256°
2026-04-20 15:27 59.65540 17.93366 111 ft 19 kts 256°
2026-04-20 15:27 59.65467 17.93198 111 ft 17 kts 171°
2026-04-20 15:27 59.65390 17.93235 112 ft 8 kts 165°
2026-04-20 15:28 59.65348 17.93213 112 ft 7 kts 231°
2026-04-20 15:28 59.65335 17.93161 112 ft 1 kts 249°
2026-04-20 15:28 59.65333 17.93152 112 ft 0 kts 249°